| time (UTC) | temp F | wind direction | speed knots | gust knots | rain 1hr in | rain 24hr in | rain mn in | humidity % | barometer mb |
| 20260510174511 | 56 | 53 | 11.3 | 17.4 | 0.00 | 0.00 | 0.00 | 63 | 1014.4 |
| 20260510173012 | 56 | 32 | 11.3 | 16.5 | 0.00 | 0.00 | 0.00 | 63 | 1014.5 |
| 20260510171511 | 57 | 42 | 12.2 | 19.1 | 0.00 | 0.00 | 0.00 | 62 | 1014.4 |
| 20260510170014 | 56 | 51 | 12.2 | 17.4 | 0.00 | 0.00 | 0.00 | 65 | 1014.6 |
| 20260510164511 | 55 | 30 | 13.9 | 20.9 | 0.00 | 0.00 | 0.00 | 64 | 1014.7 |
| 20260510163014 | 55 | 33 | 13.0 | 19.1 | 0.00 | 0.00 | 0.00 | 66 | 1014.7 |
| 20260510161512 | 55 | 44 | 12.2 | 18.2 | 0.00 | 0.00 | 0.00 | 68 | 1014.9 |
| 20260510153012 | 54 | 44 | 13.9 | 19.1 | 0.00 | 0.00 | 0.00 | 69 | 1015.2 |
| 20260510150013 | 55 | 46 | 15.6 | 20.9 | 0.00 | 0.00 | 0.00 | 68 | 1015.5 |
| 20260510144511 | 56 | 61 | 14.8 | 22.6 | 0.00 | 0.00 | 0.00 | 68 | 1015.7 |
| 20260510143012 | 56 | 50 | 16.5 | 22.6 | 0.00 | 0.00 | 0.00 | 68 | 1015.8 |
| 20260510141512 | 56 | 49 | 15.6 | 25.2 | 0.00 | 0.00 | 0.00 | 68 | 1016.0 |
| 20260510134512 | 56 | 41 | 16.5 | 23.5 | 0.00 | 0.00 | 0.00 | 68 | 1016.1 |
| 20260510131511 | 58 | 51 | 16.5 | 24.3 | 0.00 | 0.00 | 0.00 | 66 | 1016.1 |
| 20260510124510 | 58 | 42 | 15.6 | 20.9 | 0.00 | 0.00 | 0.00 | 66 | 1016.2 |
| 20260510121510 | 58 | 40 | 14.8 | 20.0 | 0.00 | 0.00 | 0.00 | 68 | 1016.4 |
| 20260510120013 | 58 | 55 | 16.5 | 24.3 | 0.00 | 0.00 | 0.00 | 63 | 1016.4 |
| 20260510114512 | 59 | 62 | 13.9 | 20.9 | 0.00 | 0.00 | 0.00 | 67 | 1016.5 |
| 20260510113028 | 57 | 57 | 15.6 | 21.7 | 0.00 | 0.00 | 0.00 | 69 | 1016.6 |
| 20260510111519 | 57 | 47 | 13.9 | 19.1 | 0.00 | 0.00 | 0.00 | 68 | 1016.8 |
| 20260510104557 | 56 | 65 | 15.6 | 20.0 | 0.00 | 0.00 | 0.00 | 69 | 1016.9 |
| 20260510103026 | 56 | 57 | 13.9 | 20.0 | 0.00 | 0.00 | 0.00 | 69 | 1017.1 |
| 20260510101516 | 55 | 57 | 15.6 | 21.7 | 0.00 | 0.00 | 0.00 | 70 | 1017.1 |
| 20260510100032 | 56 | 39 | 14.8 | 20.9 | 0.00 | 0.00 | 0.00 | 70 | 1017.2 |
| 20260510094519 | 55 | 36 | 16.5 | 24.3 | 0.00 | 0.00 | 0.00 | 71 | 1017.3 |
| 20260510093053 | 55 | 62 | 16.5 | 24.3 | 0.00 | 0.00 | 0.00 | 70 | 1017.5 |
| 20260510091537 | 54 | 53 | 16.5 | 23.5 | 0.00 | 0.00 | 0.00 | 70 | 1017.6 |
| 20260510084556 | 55 | 61 | 14.8 | 21.7 | 0.00 | 0.00 | 0.00 | 70 | 1017.7 |
| 20260510083026 | 55 | 55 | 13.9 | 18.2 | 0.00 | 0.00 | 0.00 | 72 | 1017.7 |
| 20260510081512 | 54 | 54 | 16.5 | 25.2 | 0.00 | 0.00 | 0.00 | 71 | 1017.8 |
| 20260510074511 | 54 | 41 | 13.0 | 20.0 | 0.00 | 0.00 | 0.00 | 74 | 1017.7 |
| 20260510073012 | 52 | 40 | 14.8 | 20.0 | 0.00 | 0.00 | 0.00 | 76 | 1017.7 |
| 20260510071512 | 52 | 33 | 13.0 | 20.0 | 0.00 | 0.00 | 0.00 | 79 | 1017.7 |
| 20260510070041 | 51 | 44 | 15.6 | 24.3 | 0.00 | 0.00 | 0.00 | 79 | 1017.6 |
| 20260510064536 | 50 | 59 | 14.8 | 20.9 | 0.00 | 0.00 | 0.00 | 80 | 1017.4 |
| 20260510063033 | 49 | 58 | 14.8 | 21.7 | 0.00 | 0.00 | 0.00 | 82 | 1017.3 |
| 20260510061522 | 49 | 40 | 13.0 | 19.1 | 0.00 | 0.00 | 0.00 | 82 | 1017.1 |
| 20260510060018 | 49 | 34 | 12.2 | 16.5 | 0.00 | 0.00 | 0.00 | 83 | 1017.3 |
| 20260510054512 | 48 | 56 | 12.2 | 17.4 | 0.00 | 0.00 | 0.00 | 85 | 1017.2 |
| 20260510053013 | 47 | 63 | 8.7 | 13.0 | 0.00 | 0.00 | 0.00 | 87 | 1017.4 |
| 20260510051515 | 46 | 49 | 7.8 | 14.8 | 0.00 | 0.00 | 0.00 | 87 | 1017.5 |
| 20260510050028 | 46 | 56 | 5.2 | 10.4 | 0.00 | 0.00 | 0.00 | 86 | 1017.6 |
| 20260510044519 | 46 | 56 | 4.3 | 8.7 | 0.00 | 0.00 | 0.00 | 85 | 1017.6 |
| 20260510041512 | 46 | 44 | 7.0 | 11.3 | 0.00 | 0.00 | 0.00 | 83 | 1017.6 |
| 20260510040028 | 46 | 60 | 8.7 | 13.9 | 0.00 | 0.00 | 0.00 | 81 | 1017.6 |
| 20260510033024 | 47 | 51 | 8.7 | 12.2 | 0.00 | 0.00 | 0.00 | 76 | 1017.6 |
| 20260510031514 | 47 | 48 | 7.0 | 12.2 | 0.00 | 0.00 | 0.00 | 74 | 1017.6 |
| 20260510030013 | 48 | 73 | 8.7 | 13.9 | 0.00 | 0.00 | 0.00 | 74 | 1017.7 |
| 20260510024513 | 49 | 63 | 7.8 | 12.2 | 0.00 | 0.00 | 0.00 | 72 | 1017.7 |
| 20260510023014 | 49 | 62 | 8.7 | 13.0 | 0.00 | 0.00 | 0.00 | 71 | 1017.7 |
| 20260510021513 | 50 | 61 | 8.7 | 14.8 | 0.00 | 0.00 | 0.00 | 70 | 1017.6 |
| 20260510020014 | 50 | 60 | 11.3 | 17.4 | 0.00 | 0.00 | 0.00 | 69 | 1017.5 |
| 20260510013013 | 51 | 61 | 7.8 | 13.9 | 0.00 | 0.00 | 0.00 | 67 | 1017.3 |
| 20260510011511 | 51 | 55 | 9.6 | 13.9 | 0.00 | 0.00 | 0.00 | 67 | 1017.4 |
| 20260510010030 | 52 | 55 | 7.8 | 13.9 | 0.00 | 0.00 | 0.00 | 67 | 1017.4 |
| 20260510004517 | 52 | 53 | 8.7 | 12.2 | 0.00 | 0.00 | 0.00 | 68 | 1017.4 |
| 20260510003013 | 52 | 43 | 5.2 | 9.6 | 0.00 | 0.00 | 0.00 | 71 | 1017.4 |
| 20260510001513 | 53 | 51 | 7.0 | 11.3 | 0.00 | 0.00 | 0.00 | 71 | 1017.4 |
| 20260510000014 | 53 | 44 | 7.0 | 10.4 | 0.00 | 0.00 | 0.00 | 71 | 1017.4 |
| 20260509233025 | 53 | 50 | 6.1 | 9.6 | 0.00 | 0.00 | 0.00 | 70 | 1017.2 |
| 20260509231512 | 53 | 56 | 5.2 | 8.7 | 0.00 | 0.00 | 0.00 | 71 | 1017.1 |
| 20260509224511 | 53 | 77 | 3.5 | 7.8 | 0.00 | 0.00 | 0.00 | 72 | 1016.9 |
| 20260509221513 | 54 | 55 | 3.5 | 6.1 | 0.00 | 0.00 | 0.00 | 71 | 1016.6 |
| 20260509220017 | 54 | 45 | 2.6 | 3.5 | 0.00 | 0.00 | 0.00 | 70 | 1016.8 |
| 20260509211513 | 56 | 23 | 2.6 | 4.3 | 0.00 | 0.00 | 0.00 | 67 | 1016.5 |
| 20260509204512 | 57 | 32 | 4.3 | 7.0 | 0.00 | 0.00 | 0.00 | 65 | 1016.2 |
| 20260509203013 | 58 | 24 | 4.3 | 7.8 | 0.00 | 0.00 | 0.00 | 64 | 1016.1 |
| 20260509201512 | 59 | 35 | 5.2 | 7.0 | 0.00 | 0.00 | 0.00 | 63 | 1016.1 |
| 20260509200014 | 61 | 28 | 6.1 | 8.7 | 0.00 | 0.00 | 0.00 | 62 | 1016.0 |
| 20260509194512 | 62 | 24 | 6.1 | 9.6 | 0.00 | 0.00 | 0.00 | 60 | 1015.9 |
| 20260509191511 | 64 | 28 | 7.8 | 11.3 | 0.00 | 0.00 | 0.00 | 57 | 1015.7 |
| 20260509190026 | 64 | 30 | 7.8 | 11.3 | 0.00 | 0.00 | 0.00 | 57 | 1015.6 |
| 20260509184511 | 65 | 36 | 8.7 | 12.2 | 0.00 | 0.00 | 0.00 | 56 | 1015.6 |
| 20260509183014 | 65 | 48 | 7.0 | 11.3 | 0.00 | 0.00 | 0.00 | 57 | 1015.5 |
| 20260509181512 | 65 | 31 | 7.0 | 12.2 | 0.00 | 0.00 | 0.00 | 56 | 1015.4 |
| 20260509180015 | 66 | 32 | 8.7 | 11.3 | 0.00 | 0.00 | 0.00 | 55 | 1015.4 |